EHI
0 0 0 0 0 0 0 0 0 0 0 0 0 0 0 0 0 1 2 3 4 5 5 3 1 0 0 0 0 0 0 0 0 0 0 0 0 0 0 0 0 0 0 0
0 0 0 0 0 0 0 0 0 0 0 0 0 0 0 0 0 0 1 2 3 4 4 3 1 0 0 0 0 0 0 0 0 0 0 0 0 0 0 0 0 0 0 0
0 0 0 0 0 0 0 0 0 0 0 0 0 0 0 0 0 0 0 1 1 2 3 3 2 0 0 0 0 0 0 0 0 0 0 0 0 0 0 0 0 0 0 0
0 0 0 0 0 0 0 0 0 0 0 0 0 0 0 0 0 0 0 0 0 0 1 2 1 0 0 0 0 0 0 0 0 0 0 0 0 0 0 0 0 0 0 0
0 0 0 0 0 0 0 0 0 0 0 0 0 0 0 0 0 0 0 0 0 0 0 0 0 0 0 0 0 0 0 0 0 0 0 0 0 0 0 0 0 0 0 0
0 0 0 0 0 0 0 0 0 0 0 0 0 0 0 0 0 0 0 0 0 0 0 0 0 0 0 0 0 0 0 0 0 0 0 0 0 0 0 0 0 0 0 0
0 0 0 0 0 0 0 0 0 0 0 0 0 0 0 0 0 0 0 0 0 0 0 0 0 0 0 0 0 0 0 0 0 0 0 0 0 0 0 0 0 0 0 0
0 0 0 0 0 0 0 0 0 0 0 0 0 0 0 0 0 0 0 0 0 0 0 0 0 0 0 0 0 0 0 0 0 0 0 0 0 0 0 0 0 0 0 0
0 0 0 0 0 0 0 0 0 0 0 0 0 0 0 0 0 0 0 0 0 0 0 0 0 0 0 0 0 0 0 0 0 0 0 0 0 0 0 0 0 0 0 0
0 0 0 0 0 0 0 0 0 0 0 0 0 0 0 0 0 0 0 0 0 0 0 0 0 0 0 0 0 0 0 0 0 0 0 0 0 0 0 0 0 0 0 0
1 0 0 0 0 0 0 0 0 0 0 0 0 0 0 0 0 0 0 0 0 0 0 0 0 0 0 0 0 0 0 0 0 0 0 0 0 0 0 0 0 0 0 0
1 0 0 0 0 0 0 0 0 0 0 0 0 0 0 0 0 0 0 0 0 0 0 0 0 0 0 0 0 0 0 0 0 0 0 0 0 0 0 0 0 0 0 0
1 0 0 0 0 0 0 0 0 0 0 0 0 0 0 0 0 0 0 0 0 0 0 0 0 0 0 0 0 0 0 0 0 0 0 0 0 0 0 0 0 0 0 0
0 0 0 0 0 0 0 0 0 0 0 0 0 0 0 0 0 0 0 0 0 0 0 0 0 0 0 0 0 0 0 0 0 0 0 0 0 0 0 0 0 0 0 0
0 0 0 0 0 0 0 0 0 0 0 0 0 0 0 0 0 0 0 0 0 0 0 0 0 0 0 0 0 0 0 0 0 0 0 0 0 0 0 0 0 0 0 0
0 0 0 0 0 0 0 0 0 0 0 0 0 0 0 0 0 0 0 0 0 0 0 0 0 0 0 0 0 0 0 0 0 0 0 0 0 0 0 0 0 0 0 0
0 0 0 0 0 0 0 0 0 0 0 0 0 0 0 0 0 0 0 0 0 0 0 0 0 0 0 0 0 0 0 0 0 0 0 0 0 0 0 0 0 0 0 0
0 0 0 0 0 0 0 0 0 0 0 0 0 0 0 0 0 0 0 0 0 0 0 0 0 0 0 0 0 0 0 0 0 0 0 0 0 0 0 0 0 0 0 0
0 0 0 0 0 0 0 0 0 0 0 0 0 0 0 0 0 0 0 0 0 0 0 0 0 0 0 0 0 0 0 0 0 0 0 0 0 0 0 0 0 0 0 0
0 0 0 0 0 0 0 0 0 0 0 0 0 0 0 0 0 0 0 0 0 0 0 0 0 0 0 0 0 0 0 0 0 0 0 0 0 0 0 0 0 0 0 0
0 0 0 0 0 0 0 0 0 0 0 0 0 0 0 0 0 0 0 0 0 0 0 0 0 0 0 0 0 0 0 0 0 0 0 0 0 0 0 0 0 0 0 0
0 0 0 0 0 0 0 0 0 0 0 0 0 0 0 0 0 0 0 0 0 0 0 0 0 0 0 0 0 0 0 0 0 0 0 0 0 0 0 0 0 0 0 0
0 0 0 0 0 0 0 0 0 0 0 0 0 0 0 0 0 0 0 0 0 0 0 0 0 0 0 0 0 0 0 0 0 0 0 0 0 0 0 0 0 0 0 0
0 0 0 0 0 0 0 0 0 0 0 0 0 0 0 0 0 0 0 0 0 0 0 0 0 0 0 0 0 0 0 0 0 0 0 0 0 0 0 0 0 0 0 0
0 0 0 0 0 0 0 0 0 0 0 0 0 0 0 0 0 0 0 0 0 0 0 0 0 0 0 0 0 0 0 0 0 0 0 0 0 0 0 0 0 0 0 0
0 0 0 0 0 0 0 0 0 0 0 0 0 0 0 0 0 0 0 0 0 0 0 0 0 0 0 0 0 0 0 0 0 0 0 0 0 0 0 0 0 0 0 0
0 0 0 0 0 0 0 0 0 0 0 0 0 0 0 0 0 0 0 0 0 0 0 0 0 0 0 0 0 0 0 0 0 0 0 0 0 0 0 0 0 0 0 0
Wind_Speed
8 7 7 8 9 8 10 10 10 7 6 2 5 8 8 9 10 10 10 9 8 7 5 4 4 3 4 4 4 5 6 7 7 8 8 9 9 9 9 9 10 10 10 11
10 8 8 10 11 11 10 10 9 9 7 0 3 6 8 9 10 10 9 9 8 6 5 5 4 4 4 4 4 5 6 7 7 8 9 9 9 9 9 9 10 10 10 11
10 6 9 11 8 8 7 7 7 7 2 4 6 7 8 9 9 9 9 8 7 6 5 4 4 3 4 4 4 5 7 8 8 8 9 9 9 9 9 10 10 10 10 11
9 7 10 2 1 3 5 6 6 5 2 4 4 5 6 7 9 9 8 8 7 6 5 4 4 4 4 4 5 6 7 8 8 8 9 9 9 9 9 9 9 10 10 11
7 8 8 4 4 5 6 6 5 5 4 5 4 5 8 8 8 8 7 7 5 5 4 4 4 3 4 5 6 6 7 7 7 8 9 9 10 10 9 9 10 10 10 11
7 8 7 1 6 3 4 6 4 5 6 7 7 7 2 9 9 8 7 6 5 5 5 4 4 3 5 6 6 7 7 7 7 8 9 10 10 10 9 9 10 10 10 10
10 9 6 4 6 6 6 2 3 4 5 8 8 4 4 7 9 9 8 7 6 6 5 4 4 4 6 6 6 7 7 7 8 8 9 9 9 9 9 9 10 10 11 10
6 8 3 6 5 4 4 4 1 3 5 7 7 5 5 6 8 9 8 8 7 6 5 4 4 5 6 7 6 6 7 8 8 8 9 8 8 9 9 9 10 10 9 10
4 2 5 0 2 4 4 5 4 5 5 6 7 7 7 7 8 8 8 7 7 6 6 5 5 6 7 6 6 6 7 8 8 9 8 8 8 9 9 8 8 8 8 8
5 4 2 2 3 5 6 7 7 6 6 6 8 8 8 8 8 8 8 7 7 7 6 5 5 6 6 6 6 7 8 8 8 8 8 7 6 7 7 7 7 8 8 8
7 6 6 2 5 8 8 7 7 6 5 6 7 7 7 7 7 7 7 6 6 7 6 6 5 5 6 6 6 7 8 8 8 8 7 7 7 6 8 8 6 8 9 9
6 6 7 7 9 11 9 8 6 5 4 3 4 5 5 5 5 5 6 6 6 6 6 6 5 6 5 5 6 7 8 8 7 6 6 7 7 7 7 9 8 11 13 12
6 8 8 8 9 9 8 7 5 3 2 1 1 2 3 3 3 4 4 5 6 6 6 6 6 6 6 5 6 7 8 8 7 7 7 7 7 8 8 7 11 14 14 15
5 4 4 7 8 9 8 7 6 5 4 3 2 1 1 1 2 2 3 4 5 5 6 7 7 7 6 6 6 8 9 7 7 7 7 7 7 8 8 9 9 7 8 12
6 6 6 6 8 9 9 8 8 8 7 6 5 3 2 1 1 2 2 3 3 5 7 7 8 7 6 6 7 8 8 7 6 7 7 8 8 8 8 9 9 8 8 5
6 8 9 10 11 11 11 11 10 9 8 7 6 5 4 3 3 2 2 3 4 7 7 7 8 7 6 7 8 7 8 8 8 8 8 8 8 8 8 8 8 8 8 7
8 9 10 11 11 12 12 11 11 10 9 8 7 6 6 5 5 5 5 5 6 7 7 7 8 7 7 8 9 7 7 6 8 9 8 8 7 8 8 8 8 8 8 6
9 9 9 9 10 10 10 11 10 10 9 8 7 7 6 6 6 6 7 7 7 8 8 7 7 7 8 9 8 7 7 7 7 7 7 7 7 8 8 8 8 9 8 6
8 8 9 9 9 9 9 9 9 9 8 8 7 7 6 6 7 7 8 8 9 9 8 8 6 8 9 8 7 7 8 8 8 7 7 6 7 8 7 7 8 8 8 7
7 7 7 8 8 8 8 8 9 8 8 8 8 8 8 8 8 9 8 9 7 8 9 8 7 8 9 7 7 8 8 8 8 7 7 7 7 7 7 7 7 7 7 7
6 7 8 8 8 9 9 9 9 8 8 8 8 9 9 9 10 9 9 10 8 8 9 8 7 7 6 4 6 8 7 7 7 7 6 6 6 7 7 7 7 7 6 6
6 7 8 8 9 9 8 8 9 10 10 10 10 10 10 10 11 10 9 8 9 7 8 7 6 4 4 4 6 6 6 7 6 5 6 6 6 6 6 7 7 6 6 6
6 7 8 9 9 10 10 10 10 10 10 11 10 10 10 10 9 10 10 9 10 8 8 7 5 3 3 6 6 6 6 6 5 5 5 5 6 6 6 6 6 6 5 6
7 8 9 9 10 11 10 10 10 9 10 11 10 9 9 9 8 9 10 9 8 7 8 4 1 3 6 6 5 5 5 5 5 5 5 5 5 5 5 5 6 5 5 6
9 9 10 10 10 9 10 10 11 11 11 8 10 9 8 7 9 9 10 11 9 8 8 3 2 5 6 5 5 4 4 3 3 4 4 4 5 5 5 5 5 5 4 5
9 10 9 10 10 9 10 10 9 9 9 9 8 8 8 8 10 9 9 10 11 8 7 5 4 4 5 4 4 3 3 2 2 3 3 4 4 4 4 4 6 5 5 4
11 10 9 9 9 9 9 9 10 10 9 9 10 9 10 10 9 10 10 9 8 6 6 5 5 4 4 3 2 2 2 2 2 2 2 3 3 3 4 5 4 4 4 4
Wind_Direction
279 279 270 269 264 240 240 266 281 289 290 278 192 196 187 183 182 180 181 184 186 192 196 209 224 238 257 276 287 295 294 294 296 297 297 295 296 296 295 292 289 290 289 286
266 260 260 263 263 260 250 254 261 270 275 280 155 177 180 185 189 193 193 191 191 196 203 219 234 250 263 273 287 290 291 294 298 297 296 297 297 296 293 290 289 289 287 287
266 258 260 256 255 249 242 238 250 261 285 145 174 188 193 192 196 201 197 193 195 201 207 220 234 245 262 278 284 285 287 292 295 296 297 300 301 299 295 294 291 290 289 288
262 255 256 291 78 270 259 244 237 259 214 188 194 189 197 197 200 201 197 195 197 203 204 213 218 229 254 274 278 283 287 292 297 298 299 302 300 297 296 293 294 292 292 291
256 250 255 237 189 214 234 250 220 227 209 176 162 189 204 196 199 200 193 193 193 199 203 207 223 236 257 272 280 285 290 297 300 301 300 299 299 299 298 296 294 293 291 291
241 258 262 220 122 160 239 244 171 199 201 179 184 238 202 164 186 193 189 185 188 191 199 206 217 228 254 273 285 292 299 301 301 298 296 296 298 298 298 297 292 292 292 291
242 251 258 85 131 181 237 3 101 203 210 193 210 262 90 151 175 185 186 187 188 196 208 216 217 227 255 275 285 296 301 297 294 294 292 290 292 293 295 294 294 293 293 291
239 248 256 112 165 226 355 29 295 241 228 214 217 203 163 168 175 182 187 190 193 199 211 212 217 232 257 272 286 293 292 290 292 293 293 295 293 292 292 291 289 288 289 292
272 318 47 94 286 328 338 303 295 272 255 228 221 210 197 188 188 192 196 196 198 204 214 215 217 234 259 277 285 286 287 288 292 295 293 292 293 292 290 287 287 296 300 302
264 261 318 307 308 311 298 291 292 285 264 237 225 216 205 199 196 197 197 195 199 209 221 224 226 236 253 268 274 277 282 287 290 290 291 295 294 291 294 297 298 301 304 304
262 286 293 296 0 348 332 311 297 288 267 242 228 219 205 202 202 201 197 197 202 212 225 232 230 238 249 258 264 273 281 284 285 288 294 294 289 292 292 294 302 296 302 303
306 355 324 325 343 340 332 327 319 302 274 238 222 219 208 202 198 199 200 196 204 215 228 235 233 240 248 252 255 267 276 281 287 292 296 293 295 292 252 250 256 247 252 266
318 322 318 318 334 345 338 338 339 333 309 271 219 212 203 199 190 196 201 204 211 217 225 232 234 239 243 246 249 257 270 280 286 290 292 290 292 295 298 276 241 241 242 243
353 336 358 11 6 6 5 11 26 39 40 44 58 84 144 174 193 209 219 228 227 228 231 233 237 241 240 240 244 255 265 267 264 275 282 284 286 288 289 296 303 296 251 232
41 43 45 34 29 27 26 32 39 40 37 38 45 45 32 11 301 269 262 256 244 243 243 243 245 247 241 241 246 255 264 269 274 282 282 280 282 282 283 290 293 298 303 277
65 60 54 46 38 31 29 29 30 28 26 25 25 20 6 351 335 323 310 292 274 268 263 256 252 250 242 241 246 251 253 248 256 274 278 278 278 281 288 295 297 300 304 310
65 53 43 38 33 30 27 25 23 18 15 14 10 7 3 357 347 343 335 319 294 284 277 264 257 253 244 239 245 256 266 256 224 253 267 277 283 287 292 295 297 301 304 313
63 54 45 35 27 23 21 18 17 13 9 6 4 4 360 357 349 339 331 321 303 290 281 275 269 261 250 242 242 255 262 270 270 271 278 280 287 289 289 290 294 300 304 300
57 46 37 30 21 14 10 7 3 2 2 360 357 354 348 344 340 332 328 315 303 296 296 291 273 260 254 246 242 243 253 261 266 268 272 273 270 276 285 292 297 300 303 306
45 32 22 16 11 4 357 354 350 351 352 351 346 343 341 339 332 325 317 303 306 312 312 305 283 264 257 243 232 246 251 258 265 270 272 276 279 284 288 294 301 304 305 307
25 12 5 359 353 348 346 342 338 336 336 335 333 332 332 330 327 324 317 312 323 328 317 301 280 274 264 251 225 248 253 257 262 268 272 277 282 287 293 299 302 301 303 310
1 354 348 344 338 334 334 327 322 322 321 320 321 323 323 322 322 319 314 315 320 336 316 302 296 306 290 261 245 250 254 257 262 270 273 277 281 285 291 299 301 304 313 316
339 337 332 330 327 321 317 315 316 316 315 317 316 317 319 320 319 317 316 329 326 335 311 309 343 349 282 257 256 254 257 261 266 272 276 278 280 284 291 298 303 310 319 321
318 319 317 316 314 308 309 315 315 310 307 303 302 306 308 307 311 316 323 326 326 320 309 330 322 268 263 264 263 261 260 259 265 275 281 281 284 290 296 300 306 314 322 324
305 305 304 306 304 304 307 303 300 298 296 298 301 305 306 313 316 319 318 318 322 309 308 311 236 248 261 270 268 267 270 282 291 295 289 294 295 299 305 305 309 311 315 318
294 293 299 297 295 293 293 296 298 301 302 303 303 308 312 313 312 312 311 313 317 314 304 304 295 269 274 279 275 280 291 280 264 271 294 302 297 302 310 314 315 315 317 319
285 283 278 277 282 289 295 297 296 296 298 300 304 307 308 307 308 313 314 313 315 315 316 312 304 295 297 304 307 312 310 306 304 305 307 300 300 308 314 312 311 316 318 325